Location: Table Mountain
(47.2500°N, 120.5778°W)
Time: 02:54:33
(UTC-07:00)

Vanguard 2 - All Passes

Search period start: 23 October 2017 00:00
Search period end: 02 November 2017 00:00
Orbit: 553 x 2939 km, 32.9° (Epoch: 22 October)

Date Brightness Start Highest point End Pass type
(mag) Time Alt. Az. Time Alt. Az. Time Alt. Az.
23 Oct - 06:36:41 10° SSW 06:48:39 24° SSE 06:58:25 10° ESE visible
23 Oct - 08:44:59 10° SW 08:58:37 37° S 09:08:05 10° ESE daylight
23 Oct - 10:56:26 10° WSW 11:07:58 36° S 11:15:29 10° SE daylight
23 Oct - 13:09:21 10° WSW 13:15:48 19° SSW 13:20:35 10° S daylight
24 Oct - 04:50:57 10° SSE 04:56:48 12° SE 05:02:19 10° ESE visible
24 Oct - 06:53:06 10° SSW 07:06:31 29° SSE 07:17:07 10° ESE visible
24 Oct - 09:02:34 10° SW 09:16:34 39° S 09:26:07 10° ESE daylight
24 Oct - 11:14:32 10° WSW 11:25:46 34° SSW 11:33:09 10° SE daylight
24 Oct - 13:28:19 10° WSW 13:33:16 15° SW 13:37:13 10° S daylight
25 Oct - 05:04:37 10° S 05:14:27 18° SE 05:23:24 10° ESE visible
25 Oct - 07:09:59 10° SW 07:24:24 34° SSE 07:35:31 10° ESE daylight
25 Oct - 09:20:20 10° WSW 09:34:30 41° S 09:44:04 10° ESE daylight
25 Oct - 11:32:45 10° WSW 11:43:29 31° SSW 11:50:41 10° SE daylight
25 Oct - 13:48:30 10° WSW 13:50:37 11° SW 13:52:34 10° SSW daylight
26 Oct - 05:20:01 10° S 05:32:07 23° SSE 05:42:55 10° ESE visible
26 Oct - 07:27:12 10° SW 07:42:18 38° SSE 07:53:45 10° ESE daylight
26 Oct - 09:38:15 10° WSW 09:52:24 42° S 10:01:55 10° ESE daylight
26 Oct - 11:51:06 10° W 12:01:07 27° SSW 12:08:02 10° SSE daylight
27 Oct - 03:38:36 10° SE 03:40:26 10° SE 03:42:15 10° SE visible
27 Oct - 05:36:13 10° SSW 05:49:50 28° SSE 06:01:48 10° E visible
27 Oct - 07:44:40 10° SW 08:00:14 42° S 08:11:51 10° ESE daylight
27 Oct - 09:56:17 10° WSW 10:10:16 41° SSW 10:19:41 10° SE daylight
27 Oct - 12:09:40 10° W 12:18:38 23° SW 12:25:07 10° SSE daylight
28 Oct - 03:49:29 10° SSE 03:57:54 15° SE 04:06:11 10° ESE visible
28 Oct - 05:52:55 10° SSW 06:07:36 34° SSE 06:20:20 10° E visible
28 Oct - 08:02:21 10° WSW 08:18:10 44° S 08:29:51 10° ESE daylight
28 Oct - 10:14:25 10° WSW 10:28:03 38° SSW 10:37:19 10° SE daylight
28 Oct - 12:28:33 10° WSW 12:36:03 18° SW 12:41:47 10° S daylight
29 Oct - 04:04:19 10° S 04:15:24 21° SE 04:26:17 10° ESE visible
29 Oct - 06:09:59 10° SW 06:25:26 38° SSE 06:38:40 10° E visible
29 Oct - 08:20:11 10° WSW 08:36:06 46° S 08:47:47 10° ESE daylight
29 Oct - 10:32:40 10° W 10:45:46 35° SSW 10:54:49 10° SE daylight
29 Oct - 12:48:09 10° WSW 12:53:22 14° SW 12:57:42 10° SSW daylight
30 Oct - 04:20:12 10° SSW 04:32:57 26° SE 04:45:29 10° E visible
30 Oct - 06:27:20 10° SW 06:43:18 42° SSE 06:56:50 10° ESE visible
30 Oct - 08:38:08 10° WSW 08:54:01 45° S 09:05:37 10° ESE daylight
30 Oct - 10:51:03 10° W 11:03:22 31° SSW 11:12:06 10° SSE daylight
31 Oct - 02:36:23 10° SSE 02:41:28 12° SE 02:46:42 10° ESE visible
31 Oct - 04:36:41 10° SSW 04:50:34 31° SSE 05:04:12 10° E visible
31 Oct - 06:44:53 10° SW 07:01:12 45° S 07:14:55 10° ESE visible
31 Oct - 08:56:11 10° WSW 09:11:52 44° SSW 09:23:20 10° SE daylight
31 Oct - 11:09:37 10° W 11:20:52 26° SW 11:29:07 10° SSE daylight
01 Nov - 02:49:50 10° S 02:58:47 17° SE 03:08:16 10° ESE visible
01 Nov - 04:53:35 10° SSW 05:08:16 36° SSE 05:22:40 10° E visible
01 Nov - 07:02:37 10° WSW 07:19:07 47° S 07:32:54 10° ESE visible
01 Nov - 09:14:20 10° W 09:29:39 41° SSW 09:40:56 10° SE daylight
01 Nov - 11:28:30 10° W 11:38:15 21° SW 11:45:45 10° S daylight
